FW9984 Weather Reports


time (UTC)temp
F
wind
direction
speed
knots
gust
knots
rain 1hr
in
rain 24hr
in
rain mn
in
humidity
%
barometer
mb
20260506154559 69 182 3.5 8.7 0.00 0.00 0.00 60 1009.2
20260506153058 68 192 3.5 10.4 0.00 0.00 0.00 62 1009.4
20260506151558 68 0 0.9 8.7 0.00 0.00 0.00 62 1009.4
20260506150100 69 218 3.5 10.4 0.00 0.00 0.00 60 1009.5
20260506144607 70 192 6.1 11.3 0.00 0.00 0.00 58 1009.5
20260506143057 70 214 7.0 13.0 0.00 0.00 0.00 58 1009.6
20260506141556 71 231 3.5 13.0 0.00 0.00 0.00 57 1009.6
20260506140058 70 175 4.3 15.6 0.00 0.00 0.00 57 1009.5
20260506134604 70 139 1.7 11.3 0.00 0.00 0.00 57 1009.8
20260506133101 71 217 3.5 10.4 0.00 0.00 0.00 56 1009.7
20260506131557 72 205 6.1 13.0 0.00 0.00 0.00 53 1009.6
20260506130059 72 215 4.3 12.2 0.00 0.00 0.00 55 1009.8
20260506124557 72 192 4.3 10.4 0.00 0.00 0.00 53 1009.7
20260506123056 72 117 1.7 13.9 0.00 0.00 0.00 54 1009.7
20260506121558 72 135 2.6 8.7 0.00 0.00 0.00 54 1009.9
20260506120058 71 163 3.5 13.0 0.00 0.00 0.00 54 1009.7
20260506114557 71 131 4.3 10.4 0.00 0.00 0.00 55 1009.7
20260506113100 72 134 2.6 11.3 0.00 0.00 0.00 53 1010.0
20260506111559 72 166 3.5 9.6 0.00 0.00 0.00 54 1010.2
20260506110058 70 207 2.6 15.6 0.00 0.00 0.00 58 1010.4
20260506104601 69 218 3.5 7.8 0.00 0.00 0.00 58 1010.7
20260506103056 69 264 2.6 9.6 0.00 0.00 0.00 59 1010.7
20260506101556 68 200 2.6 7.8 0.00 0.00 0.00 59 1010.9
20260506100104 68 145 4.3 13.9 0.00 0.00 0.00 59 1010.9
20260506094613 68 241 5.2 11.3 0.00 0.00 0.00 59 1011.0
20260506093058 69 257 3.5 8.7 0.00 0.00 0.00 57 1010.9
20260506091558 70 212 3.5 12.2 0.00 0.00 0.00 56 1010.8
20260506090100 72 176 2.6 9.6 0.00 0.00 0.00 55 1010.6
20260506084601 71 162 1.7 8.7 0.00 0.00 0.00 53 1010.6
20260506083103 71 184 5.2 13.0 0.00 0.00 0.00 51 1010.6
20260506081556 71 152 4.3 10.4 0.00 0.00 0.00 53 1010.5
20260506080108 70 181 4.3 10.4 0.00 0.00 0.00 55 1010.6
20260506073116 70 178 3.5 9.6 0.00 0.00 0.00 53 1010.2
20260506071600 70 190 4.3 9.6 0.00 0.00 0.00 52 1010.2
20260506070109 69 159 2.6 7.8 0.00 0.00 0.00 54 1010.1
20260506061601 67 228 2.6 6.1 0.00 0.00 0.00 57 1010.4
20260506050113 63 205 0.9 7.0 0.00 0.00 0.00 68 1010.2
20260506044555 62 277 2.6 7.0 0.00 0.00 0.00 68 1010.3
20260506043102 61 168 0.9 2.6 0.00 0.00 0.00 71 1010.2
20260506041559 58 218 1.7 6.1 0.00 0.00 0.00 74 1010.1
20260506040058 58 224 0.0 1.7 0.00 0.00 0.00 75 1010.1
20260506034603 58 199 0.0 2.6 0.00 0.00 0.00 74 1010.0
20260506033109 58 198 0.9 2.6 0.00 0.00 0.00 74 1010.0
20260506031556 58 245 0.9 4.3 0.00 0.00 0.00 72 1009.9
20260506024615 59 205 0.9 6.1 0.00 0.00 0.00 71 1010.1
20260506023105 59 254 1.7 7.0 0.00 0.00 0.00 70 1010.1
20260506021600 59 152 0.9 4.3 0.00 0.00 0.00 71 1010.1
20260506020056 59 200 1.7 7.0 0.00 0.00 0.00 71 1009.8
20260506014558 59 188 0.9 3.5 0.00 0.00 0.00 71 1009.8
20260506013103 59 238 0.9 7.0 0.00 0.00 0.00 71 1009.7
20260506011623 59 271 0.9 5.2 0.00 0.00 0.00 71 1009.5
20260506010115 60 292 2.6 7.0 0.00 0.00 0.00 71 1009.5
20260506004604 60 191 1.7 9.6 0.00 0.00 0.00 71 1009.6
20260506003103 60 162 2.6 10.4 0.00 0.00 0.00 71 1009.6
20260506001602 59 209 1.7 5.2 0.00 0.00 0.00 72 1009.5
20260505234601 60 228 1.7 7.8 0.00 0.00 0.00 71 1009.6
20260505233059 59 233 2.6 6.1 0.00 0.00 0.00 71 1009.8
20260505231557 59 86 1.7 7.0 0.00 0.00 0.00 72 1009.7
20260505230100 59 155 0.9 3.5 0.00 0.00 0.00 72 1009.8
20260505224558 59 205 0.9 7.0 0.00 0.00 0.00 72 1009.6
20260505223100 59 143 0.9 6.1 0.00 0.00 0.00 74 1009.5
20260505221604 59 172 2.6 6.1 0.00 0.00 0.00 73 1009.7
20260505220107 59 189 0.9 5.2 0.00 0.00 0.00 73 1009.8
20260505214602 59 160 2.6 6.1 0.00 0.00 0.00 73 1009.9
20260505213057 59 79 3.5 7.0 0.00 0.00 0.00 74 1009.8
20260505211559 59 197 2.6 7.8 0.00 0.00 0.00 74 1010.0
20260505210059 59 200 1.7 7.0 0.00 0.00 0.00 73 1010.4
20260505204606 59 0 1.7 7.0 0.00 0.00 0.00 73 1010.2
20260505203106 59 215 0.9 6.1 0.00 0.00 0.00 73 1010.0
20260505201559 59 200 0.9 6.1 0.00 0.00 0.00 73 1010.3
20260505200056 59 214 0.9 6.1 0.00 0.00 0.00 73 1010.3
20260505194603 59 146 0.9 4.3 0.00 0.00 0.00 72 1010.2
20260505193057 60 195 0.0 4.3 0.00 0.00 0.00 72 1010.2
20260505191558 60 255 1.7 8.7 0.00 0.00 0.00 70 1010.1
20260505190056 61 149 2.6 12.2 0.00 0.00 0.00 69 1010.1
20260505184557 61 257 1.7 9.6 0.00 0.00 0.00 68 1010.1
20260505183058 62 184 4.3 13.9 0.00 0.00 0.00 67 1010.0
20260505181610 61 206 2.6 7.8 0.00 0.00 0.00 66 1010.1
20260505180056 61 180 1.7 10.4 0.00 0.00 0.00 66 1010.0
20260505174558 62 157 1.7 7.0 0.00 0.00 0.00 64 1010.3
20260505173057 63 205 2.6 5.2 0.00 0.00 0.00 62 1010.3
20260505171557 64 200 1.7 7.0 0.00 0.00 0.00 60 1010.5
20260505170057 65 140 4.3 10.4 0.00 0.00 0.00 57 1010.4
20260505164603 66 239 3.5 8.7 0.00 0.00 0.00 55 1010.4
20260505163058 66 184 2.6 13.0 0.00 0.00 0.00 56 1010.6
20260505161601 67 210 1.7 9.6 0.00 0.00 0.00 56 1010.8